[[{"header":{"parameterUnit":"m.s-1","parameterCategory":1,"la1":30.2991,"la2":30.254,"lo1":-89.0895,"lo2":-89.0444,"dy":0.0017,"dx":0.0017,"nx":28,"ny":28,"refTime":"2024-07-16T21:00:00:Z","depth":0,"parameterNumber":2,"parameterNumberName":"U-component_of_WINDS"},"data":[0,0,0,0,0,0,0,0,0,0,0,0,0,0,0,0,0,0,0,0,0,0,0,0,0,0,0,0,0,0,0,0,0,0,0,0,0,0,0,0,0,0,0,0,0,0,0,0,0,0,0,0,0,0,0,0,0,0,3.4378,3.4378,0,3.4406,3.4406,3.4406,3.4329,3.4326,3.4324,3.4322,3.4353,3.4356,3.4359,0,0,0,0,0,0,0,0,0,0,0,0,0,3.4257,3.426,3.4378,3.4378,3.4378,3.4406,3.4406,3.4407,3.4329,3.4326,3.4323,3.4321,3.4352,3.4356,3.4359,0,0,0,0,0,0,0,0,0,0,0,0,0,3.43,3.426,3.4378,3.4343,3.434,3.4406,3.4406,3.4407,3.433,3.4326,3.4323,3.4319,3.4351,3.4355,3.436,3.4461,0,0,3.4374,3.4376,0,0,0,0,0,0,0,0,3.4297,3.4304,3.4348,3.4345,3.4342,3.436,3.4375,3.4425,3.4331,3.4334,3.4322,3.4317,3.4358,3.4362,3.4376,3.4463,3.4464,3.4375,3.4377,3.4379,3.4381,0,0,0,0,0,0,0,3.4295,3.4303,3.4389,3.4348,3.4345,3.4326,3.4328,3.4384,3.4366,3.4333,3.4328,3.4332,3.4356,3.4371,3.4376,3.4464,3.4374,3.4378,3.4381,3.4383,3.4631,3.4634,0,0,0,0,0,0,3.4296,3.4301,3.4388,3.439,3.431,3.4331,3.4333,3.4358,3.4365,3.4363,3.4335,3.4328,3.4365,3.437,3.4377,3.4491,3.4379,3.4384,3.4386,3.4627,3.4632,3.4636,0,0,0,0,0,0,3.4294,3.4304,3.4387,3.4344,3.4353,3.4337,3.4365,3.4361,3.4375,3.4367,3.4363,3.4353,3.4363,3.437,3.4439,3.4492,3.4386,3.439,3.4623,3.4629,3.4634,3.4725,0,0,0,0,0,0,3.4291,3.4304,3.4343,3.4345,3.4355,3.4449,3.4369,3.4364,3.4383,3.4375,3.4383,3.4381,3.436,3.4433,3.4444,3.4496,3.4394,3.4618,3.4625,3.4632,3.4717,3.4733,3.4747,0,0,0,0,0,3.4286,3.4369,3.4345,3.4356,3.4403,3.4453,3.4458,3.4432,3.4388,3.4426,3.442,3.4381,3.4485,3.4441,3.4453,3.4507,3.4614,3.4623,3.4631,3.471,3.473,3.4746,0,0,0,0,0,0,3.4375,3.4369,3.4342,3.4428,3.4441,3.4439,3.4487,3.4454,3.4481,3.4472,3.4439,3.4442,3.4516,3.4519,3.447,3.4603,3.4542,3.4553,3.4598,3.4616,3.4631,3.4627,3.4397,0,0,0,0,0,3.4404,3.4444,3.4437,3.4513,3.4521,3.4503,3.4524,3.4502,3.4515,3.452,3.452,3.4534,3.4569,3.4593,3.4626,3.4718,3.4717,3.4761,3.4776,3.4788,3.4797,3.4841,3.486,3.4664,3.4664,3.4664,0,0,3.4465,3.4467,3.4495,3.4531,3.4539,3.458,3.4508,3.4557,3.4587,3.4528,3.4592,3.4592,3.4606,3.4685,3.4721,3.469,3.4851,3.4799,3.4808,3.4811,3.4852,3.4871,3.4887,3.467,3.4669,3.4668,0,0,3.4597,3.4604,3.4665,3.4674,3.4685,3.4672,3.4687,3.469,3.4687,3.475,3.4706,3.4742,3.4805,3.4815,3.4828,3.4961,3.4924,3.4973,3.5049,3.5092,3.5108,3.5121,3.5164,3.5181,3.4983,3.4983,3.4983,0,3.4671,3.4732,3.4702,3.4751,3.4767,3.4714,3.4775,3.4786,3.4808,3.482,3.4786,3.486,3.4867,3.4946,3.4977,3.4992,3.5006,3.497,3.5108,3.5121,3.5133,3.5174,3.5191,3.4988,3.4988,3.4987,3.4987,0,3.482,3.4863,3.4912,3.4932,3.4954,3.501,3.4987,3.5013,3.4989,3.4979,3.5043,3.5048,3.5078,3.5096,3.5075,3.5172,3.5151,3.5114,3.5051,3.5158,3.5195,3.5211,3.4996,3.4994,3.4992,3.4991,0,0,3.5009,3.5009,3.5027,3.5033,3.5041,3.5073,3.5126,3.5154,3.5175,3.5193,3.5234,3.5287,3.525,3.5266,3.5245,3.5284,3.5383,3.524,3.5239,3.5263,3.5485,3.5511,3.553,3.536,3.5363,3.5365,3.5483,0,3.5135,3.5222,3.5195,3.5284,3.532,3.527,3.5315,3.5324,3.5317,3.5347,3.5339,3.5375,3.5326,3.5334,3.5371,3.5363,3.5426,3.5355,3.5396,3.5398,3.539,3.555,3.5579,3.5689,3.5498,3.55,3.5502,0,3.5294,3.5314,3.5405,3.5402,3.5417,3.5458,3.5479,3.551,3.5519,3.551,3.5526,3.5496,3.5546,3.5485,3.5552,3.5504,3.552,3.5518,3.5522,3.5522,3.5454,3.5551,3.5724,3.5739,3.5526,3.5524,3.5522,0,3.5416,3.5467,3.5526,3.5534,3.5534,3.5563,3.5565,3.557,3.5588,3.5607,3.5617,3.5644,3.5657,3.5678,3.5655,3.5614,3.5724,3.5663,3.5717,3.5717,3.574,3.5738,3.5914,3.5757,3.5756,3.5756,3.5756,0,3.5558,3.5615,3.558,3.5617,3.5678,3.5647,3.5708,3.5704,3.5709,3.5743,3.5703,3.5736,3.5706,3.5736,3.5719,3.5775,3.5783,3.5776,3.577,3.5777,3.5777,3.5784,3.5775,3.576,3.5759,3.5759,3.5758,0,3.5704,3.5684,3.5744,3.5738,3.5738,3.5783,3.5778,3.5811,3.58,3.5843,3.5852,3.5834,3.5867,3.5847,3.5882,3.587,3.5941,3.5927,3.5938,3.5932,3.5985,3.5979,3.6169,3.6191,3.6023,3.6025,3.6026,0,3.5794,3.5835,3.5833,3.5851,3.5855,3.5887,3.5903,3.5874,3.5893,3.5904,3.5935,3.5964,3.5986,3.6041,3.6031,3.6056,3.604,3.6105,3.6043,3.6048,3.6036,3.6032,3.6034,3.6116,3.6118,3.612,3.6121,0,3.5954,3.5941,3.5965,3.5985,3.6005,3.6021,3.6033,3.6051,3.6021,3.6044,3.6076,3.6093,3.6126,3.6154,3.6175,3.6177,3.6143,3.6141,3.6154,3.616,3.6162,3.6157,3.5967,3.6136,3.6134,3.6133,3.6132,3.6132,3.6072,3.6104,3.6106,3.6134,3.6139,3.615,3.6179,3.6171,3.6196,3.6219,3.6201,3.6238,3.6244,3.6268,3.6273,3.6301,3.6275,3.6295,3.6299,3.6304,3.6309,3.6161,3.6306,3.6305,3.6305,3.6305,3.6304,0,3.6226,3.6224,3.6249,3.6265,3.6287,3.6253,3.6263,3.6283,3.6316,3.6323,3.6344,3.6379,3.6406,3.6398,3.6421,3.6445,3.643,3.6452,3.6448,3.6448,3.6334,3.6318,3.6463,3.6463,3.6463,3.6463,3.6463,3.6463,3.6308,3.636,3.6347,3.6401,3.6399,3.6433,3.6441,3.6451,3.6456,3.6496,3.6517,3.6511,3.6512,3.6534,3.6557,3.6553,3.6562,3.6589,3.658,3.6473,3.6457,3.6442,3.6426,3.6592,3.6592,3.6691,3.6692,3.6693]},{"header":{"parameterUnit":"m.s-1","parameterCategory":1,"la1":30.2991,"la2":30.254,"lo1":-89.0895,"lo2":-89.0444,"dy":0.0017,"dx":0.0017,"nx":28,"ny":28,"refTime":"2024-07-16T21:00:00:Z","depth":0,"parameterNumber":3,"parameterNumberName":"V-component_of_WINDS"},"data":[0,0,0,0,0,0,0,0,0,0,0,0,0,0,0,0,0,0,0,0,0,0,0,0,0,0,0,0,0,0,0,0,0,0,0,0,0,0,0,0,0,0,0,0,0,0,0,0,0,0,0,0,0,0,0,0,0,0,3.0686,3.0688,0,3.0861,3.0863,3.0865,3.0901,3.09,3.0898,3.0897,3.1071,3.1076,3.1082,0,0,0,0,0,0,0,0,0,0,0,0,0,3.0378,3.0384,3.0686,3.0688,3.0691,3.086,3.0863,3.0865,3.0901,3.09,3.0898,3.0896,3.1069,3.1076,3.1083,0,0,0,0,0,0,0,0,0,0,0,0,0,3.0528,3.0386,3.0686,3.0729,3.0735,3.086,3.0863,3.0866,3.0901,3.0899,3.0898,3.0896,3.1067,3.1075,3.1084,3.1177,0,0,3.111,3.1114,0,0,0,0,0,0,0,0,3.052,3.0539,3.0721,3.0726,3.0733,3.0857,3.0818,3.097,3.0902,3.0838,3.0897,3.0895,3.1001,3.1015,3.1052,3.1185,3.1192,3.1111,3.1116,3.112,3.1123,0,0,0,0,0,0,0,3.0509,3.0532,3.0755,3.0723,3.0731,3.0738,3.0757,3.0847,3.0928,3.0843,3.0846,3.0867,3.1004,3.1043,3.1056,3.1195,3.1111,3.1119,3.1124,3.1127,3.141,3.1412,0,0,0,0,0,0,3.0492,3.0523,3.0749,3.076,3.0619,3.0745,3.0766,3.0819,3.0927,3.0942,3.0868,3.0868,3.1029,3.1046,3.1062,3.1177,3.112,3.1128,3.1133,3.1408,3.141,3.1413,0,0,0,0,0,0,3.0485,3.0512,3.0742,3.0643,3.0673,3.0752,3.0811,3.0824,3.0863,3.0946,3.096,3.0894,3.1028,3.105,3.1148,3.1183,3.1132,3.114,3.1405,3.1408,3.1412,3.1407,0,0,0,0,0,0,3.0476,3.0509,3.0547,3.0643,3.0678,3.0827,3.0814,3.0828,3.0879,3.088,3.0974,3.0988,3.1029,3.1134,3.1156,3.1194,3.1147,3.1402,3.1406,3.141,3.1404,3.141,3.1414,0,0,0,0,0,3.0465,3.0538,3.0549,3.0576,3.0727,3.0829,3.0848,3.0895,3.0881,3.0919,3.0972,3.0985,3.1176,3.1144,3.1169,3.121,3.14,3.1405,3.141,3.1402,3.1409,3.1414,0,0,0,0,0,0,3.0442,3.0552,3.0564,3.0671,3.0741,3.0835,3.0884,3.0901,3.0975,3.0972,3.1026,3.1047,3.1141,3.1185,3.1148,3.1305,3.1287,3.1297,3.1272,3.1279,3.1284,3.1271,3.1154,0,0,0,0,0,3.045,3.0526,3.0616,3.0701,3.0736,3.0803,3.085,3.088,3.0953,3.0982,3.1042,3.1112,3.1187,3.1236,3.131,3.1411,3.1431,3.1451,3.1456,3.146,3.1468,3.1522,3.1532,3.1429,3.1429,3.1429,0,0,3.0466,3.0535,3.0579,3.0698,3.0756,3.083,3.0828,3.0908,3.0963,3.0994,3.109,3.1136,3.1217,3.1316,3.1362,3.1356,3.1501,3.1467,3.1469,3.1475,3.1529,3.1538,3.1547,3.1433,3.1432,3.1432,0,0,3.0534,3.0594,3.0671,3.0729,3.0816,3.086,3.0878,3.097,3.1002,3.11,3.1124,3.1189,3.1319,3.1375,3.142,3.1507,3.1521,3.1529,3.1556,3.1608,3.1616,3.1623,3.1653,3.1663,3.1537,3.1537,3.1537,0,3.0542,3.0658,3.0708,3.0787,3.0837,3.087,3.0946,3.0999,3.1105,3.1138,3.113,3.1292,3.1349,3.146,3.1481,3.1518,3.1538,3.1519,3.1611,3.1619,3.1627,3.1655,3.1666,3.1538,3.1537,3.1537,3.1537,0,3.0663,3.0742,3.0794,3.0897,3.0953,3.103,3.109,3.1141,3.1165,3.121,3.1307,3.1376,3.1464,3.1493,3.1517,3.1607,3.16,3.1601,3.1584,3.1636,3.1663,3.1675,3.1538,3.1538,3.1538,3.1538,0,0,3.0722,3.0851,3.0868,3.0915,3.1012,3.1074,3.1151,3.1239,3.128,3.1352,3.1416,3.1525,3.1525,3.1577,3.1608,3.1654,3.1715,3.1649,3.1651,3.1657,3.1817,3.1815,3.1827,3.1725,3.1728,3.173,3.1809,0,3.08,3.0941,3.0988,3.1104,3.1177,3.1208,3.1275,3.1341,3.1384,3.145,3.1497,3.1573,3.1569,3.16,3.1647,3.1698,3.1748,3.1693,3.1784,3.1787,3.1762,3.1841,3.184,3.1912,3.182,3.1822,3.1824,0,3.091,3.0984,3.1108,3.1196,3.1228,3.1288,3.137,3.1434,3.1508,3.1536,3.1593,3.162,3.17,3.1679,3.1788,3.1749,3.1789,3.1819,3.1823,3.1833,3.1808,3.1851,3.1936,3.1946,3.1841,3.184,3.1839,0,3.0938,3.1069,3.116,3.1199,3.1303,3.1344,3.1389,3.1462,3.151,3.1582,3.1614,3.1693,3.1736,3.1796,3.1842,3.1823,3.1947,3.193,3.197,3.1969,3.1994,3.1992,3.2085,3.2022,3.2022,3.2021,3.2021,0,3.102,3.1094,3.1174,3.1229,3.1313,3.1364,3.1445,3.1491,3.1555,3.1619,3.165,3.1708,3.1767,3.1833,3.187,3.1953,3.1973,3.1996,3.2004,3.1993,3.1989,3.2019,3.2014,3.2024,3.2024,3.2023,3.2023,0,3.1065,3.1122,3.1223,3.1313,3.1337,3.1394,3.1471,3.1525,3.1569,3.1649,3.167,3.1739,3.1818,3.1871,3.1971,3.1996,3.2086,3.2094,3.2061,3.2065,3.2102,3.2097,3.2216,3.2234,3.2159,3.216,3.2161,0,3.1113,3.1171,3.1268,3.1313,3.1359,3.1432,3.1482,3.1534,3.1584,3.1673,3.1715,3.1796,3.1864,3.1988,3.2045,3.2121,3.2131,3.2167,3.2142,3.2128,3.213,3.2125,3.213,3.2171,3.2171,3.2172,3.2172,0,3.1192,3.1217,3.1289,3.137,3.1429,3.1495,3.1561,3.1596,3.166,3.1714,3.1796,3.1848,3.1951,3.203,3.2111,3.2155,3.2174,3.218,3.2193,3.2181,3.2159,3.2169,3.207,3.2177,3.2176,3.2176,3.2176,3.2176,3.1239,3.1291,3.1367,3.1446,3.1501,3.1562,3.1617,3.1668,3.1737,3.1826,3.1852,3.1936,3.2007,3.2118,3.2163,3.2228,3.2225,3.2244,3.2249,3.2252,3.2252,3.2149,3.2244,3.2243,3.2243,3.2243,3.2243,0,3.1318,3.1368,3.144,3.1532,3.1593,3.1606,3.168,3.1729,3.1804,3.1869,3.1935,3.2027,3.2104,3.2167,3.2245,3.2285,3.2295,3.2304,3.2301,3.231,3.2251,3.2231,3.2294,3.2294,3.2294,3.2294,3.2294,3.2294,3.1366,3.1454,3.1488,3.1603,3.1653,3.1737,3.1777,3.1832,3.1885,3.1987,3.2051,3.2092,3.2156,3.2239,3.2309,3.2326,3.2352,3.2359,3.2377,3.232,3.2314,3.2309,3.2291,3.2364,3.2365,3.243,3.2431,3.2431]}]]